Home > Weather > Nassau > Past weeks

Flag for Bahamas Weather for the Past 2 Weeks in Nassau, Bahamas

Now
79 °F

Passing clouds.


Feels Like: 81 °F
Forecast: 73 / 81 °F
Wind: 7 mph from Northeast

Location: Nassau Airport

Current Time: Apr 29, 2016 at 10:14:33 AM

Latest Report: Apr 29, 2016 at 9:00 AM


Visibility: N/A

Pressure: 30.04 "Hg

Humidity: 61%

Dew Point: 64 °F

Location of NassauLocation

Historic Weather in Nassau — Graph

°F

Nassau Temperature Yesterday

Maximum temperature yesterday: 86 °F (at 1:00 PM)
Minimum temperature yesterday: 73 °F (at 2:00 AM)
Average temperature yesterday: 79 °F

High & Low Weather Summary for the Past Weeks

 TemperatureHumidityPressure
High90 °F (Apr 15, 3:00 PM)94% (Apr 24, 5:00 AM)30.15 "Hg (Apr 24, 5:00 AM)
Low70 °F (Apr 18, 8:00 AM)37% (Apr 24, 10:00 AM)29.91 "Hg (Apr 23, 4:00 PM)
Average78 °F67%30.02 "Hg
* Reported Apr 14 9:00 AM — Apr 29 9:00 AM, Nassau, Weather by CustomWeather, © 2016

Note: Actual official high and low records may vary slightly from our data, if they occured in-between our weather recording intervals... More about our weather records

Advertising

Nassau Weather History for the Previous 24 Hours

Scroll right to see more
 ConditionsComfort  
Time TempWeatherWind HumidityBarometerVisibility
9:00 AM
Fri, Apr 29
79 °FPassing clouds.7 mph61%30.04 "HgN/A
8:00 AM75 °FPassing clouds.No wind83%30.03 "HgN/A
7:00 AM72 °FPassing clouds.No wind83%30.01 "HgN/A
6:00 AM73 °FPassing clouds.No wind78%30.00 "HgN/A
5:00 AM72 °FPassing clouds.3 mph88%29.99 "HgN/A
4:00 AM73 °FPassing clouds.No wind78%29.98 "HgN/A
3:00 AM73 °FPassing clouds.No wind78%29.99 "HgN/A
2:00 AM73 °FPassing clouds.No wind89%30.00 "HgN/A
1:00 AM75 °FPassing clouds.No wind74%30.02 "HgN/A
12:00 AM75 °FPassing clouds.5 mph94%30.03 "HgN/A
11:00 PM
Thu, Apr 28
77 °FPassing clouds.6 mph83%30.04 "HgN/A
10:00 PM79 °FPassing clouds.6 mph74%30.03 "HgN/A
9:00 PM77 °FPassing clouds.6 mph74%30.01 "HgN/A
8:00 PM77 °FPassing clouds.7 mph79%30.00 "HgN/A
6:00 PM84 °FScattered clouds.9 mph66%29.99 "HgN/A
5:00 PM84 °FScattered clouds.9 mph62%29.98 "HgN/A
4:00 PM82 °FScattered clouds.8 mph62%29.99 "HgN/A
3:00 PM82 °FScattered clouds.No wind62%30.00 "HgN/A
2:00 PM84 °FScattered clouds.No wind62%30.01 "HgN/A
1:00 PM86 °FScattered clouds.7 mph55%30.01 "HgN/A
12:00 PM84 °FScattered clouds.5 mph58%30.03 "HgN/A
11:00 AM82 °FScattered clouds.7 mph70%30.03 "HgN/A
10:00 AM82 °FScattered clouds.7 mph66%30.03 "HgN/A
Weather by CustomWeather, © 2016

See weather overviewHow to use our weather pages